Overview Statistics Trail Chart Weather Telemetry Raw packets
 

This is the latest recevied weather packets stored in our database for station/object W7BTL. If no packets are shown the sender has not sent any weather packets the latest 10 day(s).

<< 41 42 43 44 45 46 47 >>
Time Temp. Humidity Pressure Rain* Wind** Luminosity Snow
1788379159 29.44° C 39% 1015.2 hPa 0 mm - 994 W/m² -
1788378854 28.89° C 41% 1015.1 hPa 0 mm - 995 W/m² -
1788378548 28.89° C 41% 1015.2 hPa 0 mm - 994 W/m² -
1788378248 29.44° C 39% 1015.2 hPa 0 mm - 993 W/m² -
1788377943 29.44° C 42% 1015.2 hPa 0 mm - 939 W/m² -
1788377639 28.89° C 42% 1015.5 hPa 0 mm - 990 W/m² -
1788377337 28.89° C 39% 1015.5 hPa 0 mm - 988 W/m² -
1788377037 28.89° C 44% 1015.6 hPa 0 mm - 986 W/m² -
1788376731 28.33° C 43% 1015.6 hPa 0 mm - 981 W/m² -
1788376427 28.33° C 40% 1015.6 hPa 0 mm - 979 W/m² -
1788376122 28.89° C 41% 1015.9 hPa 0 mm - 974 W/m² -
1788375821 28.33° C 44% 1015.8 hPa 0 mm - 963 W/m² -
1788375517 27.78° C 46% 1016 hPa 0 mm - 961 W/m² -
1788375212 27.22° C 49% 1016 hPa 0 mm - 953 W/m² -
1788374908 27.78° C 46% 1015.9 hPa 0 mm - 945 W/m² -
1788374603 28.33° C 46% 1015.9 hPa 0 mm - 440 W/m² -
1788374299 27.78° C 46% 1015.9 hPa 0 mm - 924 W/m² -
1788373995 27.78° C 47% 1015.8 hPa 0 mm - 443 W/m² -
1788373691 27.78° C 46% 1015.9 hPa 0 mm - 911 W/m² -
1788373387 27.22° C 47% 1016 hPa 0 mm - 902 W/m² -
1788373084 27.22° C 49% 1015.9 hPa 0 mm - 888 W/m² -
1788372784 27.22° C 51% 1016 hPa 0 mm - 878 W/m² -
1788372478 26.67° C 50% 1016 hPa 0 mm - 860 W/m² -
1788372174 26.11° C 53% 1015.9 hPa 0 mm - 844 W/m² -
1788371869 26.11° C 53% 1016.1 hPa 0 mm - 829 W/m² -

* Rain latest hour (hover to see other rain measurements)
** Current wind speed in m/s (hover to see current wind gust speed)